DW0465 Weather Reports


Display with metric or nautical units.
time (UTC)temp
F
wind
direction
speed
MPH
gust
MPH
rain 1hr
in
rain 24hr
in
rain mn
in
humidity
%
barometer
mb
20260503030047 56 348 0.0 5.0 0.00 0.00 0.00 30 1010.0
20260503024539 58 339 0.0 1.0 0.00 0.00 0.00 28 1009.6
20260503023039 60 341 0.0 0.0 0.00 0.00 0.00 26 1009.4
20260503021538 62 321 0.0 0.0 0.00 0.00 0.00 24 1009.3
20260503020037 63 309 0.0 0.0 0.00 0.00 0.00 21 1009.1
20260503014540 65 290 0.0 2.0 0.00 0.00 0.00 19 1009.1
20260503013038 66 316 0.0 3.0 0.00 0.00 0.00 18 1009.0
20260503011535 67 329 0.0 2.0 0.00 0.00 0.00 16 1009.0
20260503010036 67 293 0.0 0.0 0.00 0.00 0.00 16 1009.1
20260503004531 66 282 0.0 1.0 0.00 0.00 0.00 16 1009.3
20260503003030 66 298 0.0 1.0 0.00 0.00 0.00 17 1009.4
20260503001529 67 340 0.0 6.0 0.00 0.00 0.00 15 1009.4
20260503000026 67 5 1.0 5.0 0.00 0.00 0.00 16 1009.5
20260502234529 67 313 0.0 3.0 0.00 0.00 0.00 15 1009.7
20260502233026 68 280 0.0 5.0 0.00 0.00 0.00 15 1009.7
20260502231524 68 335 0.0 1.0 0.00 0.00 0.00 15 1009.8
20260502230026 68 149 0.0 0.0 0.00 0.00 0.00 16 1010.0
20260502224520 68 283 0.0 0.0 0.00 0.00 0.00 17 1010.2
20260502223019 67 154 0.0 4.0 0.00 0.00 0.00 17 1010.5
20260502221516 67 169 0.0 2.0 0.00 0.00 0.00 17 1010.6
20260502220014 67 34 0.0 4.0 0.00 0.00 0.00 17 1010.8
20260502214512 67 90 0.0 2.0 0.00 0.00 0.00 18 1011.0
20260502213010 67 66 0.0 2.0 0.00 0.00 0.00 18 1011.2
20260502211510 67 97 0.0 4.0 0.00 0.00 0.00 19 1011.3
20260502210005 67 42 0.0 3.0 0.00 0.00 0.00 17 1011.6
20260502204504 67 26 0.0 2.0 0.00 0.00 0.00 18 1011.9
20260502203003 68 82 0.0 3.0 0.00 0.00 0.00 17 1012.0
20260502201501 69 107 0.0 3.0 0.00 0.00 0.00 15 1012.0
20260502200059 68 90 0.0 2.0 0.00 0.00 0.00 17 1012.4
20260502194557 69 5 0.0 4.0 0.00 0.00 0.00 11 1012.4
20260502193102 68 67 0.0 0.0 0.00 0.00 0.00 13 1012.6
20260502191559 68 5 0.0 1.0 0.00 0.00 0.00 13 1012.8
20260502184553 66 287 0.0 4.0 0.00 0.00 0.00 14 1013.4
20260502183100 67 66 0.0 3.0 0.00 0.00 0.00 14 1013.6
20260502181543 67 130 0.0 1.0 0.00 0.00 0.00 16 1013.8
20260502163018 64 19 0.0 0.0 0.00 0.00 0.00 18 1014.9
20260502161514 63 71 0.0 0.0 0.00 0.00 0.00 18 1015.1
20260502151606 59 175 0.0 0.0 0.00 0.00 0.00 25 1015.4
20260502123016 37 209 0.0 0.0 0.00 0.00 0.00 49 1016.2
20260502121511 37 187 0.0 1.0 0.00 0.00 0.00 51 1016.1
20260502114508 37 184 0.0 3.0 0.00 0.00 0.00 52 1016.3
20260502113007 39 184 0.0 8.0 0.00 0.00 0.00 47 1016.2
20260502111515 38 152 0.0 4.0 0.00 0.00 0.00 48 1016.4
20260502110009 39 205 0.0 1.0 0.00 0.00 0.00 49 1016.6
20260502104503 39 192 0.0 1.0 0.00 0.00 0.00 49 1016.5
20260502103003 38 178 0.0 2.0 0.00 0.00 0.00 50 1016.5
20260502101503 38 200 0.0 1.0 0.00 0.00 0.00 51 1016.5
20260502090106 37 234 0.0 0.0 0.00 0.00 0.00 57 1016.9
20260502070040 39 223 0.0 0.0 0.00 0.00 0.00 53 1017.3
20260502064539 39 180 0.0 0.0 0.00 0.00 0.00 53 1017.3
20260502063037 39 215 0.0 0.0 0.00 0.00 0.00 51 1017.4
20260502061534 40 199 0.0 0.0 0.00 0.00 0.00 49 1017.5
20260502060031 41 238 0.0 1.0 0.00 0.00 0.00 48 1017.4
20260502054528 42 186 0.0 1.0 0.00 0.00 0.00 46 1017.5
20260502053028 43 191 0.0 1.0 0.00 0.00 0.00 45 1017.7
20260502051530 44 194 0.0 5.0 0.00 0.00 0.00 43 1017.7
20260502050035 44 194 0.0 2.0 0.00 0.00 0.00 43 1017.8
20260502044526 45 204 0.0 3.0 0.00 0.00 0.00 42 1017.8
20260502043026 45 188 0.0 1.0 0.00 0.00 0.00 41 1017.8
20260502041532 46 190 0.0 2.0 0.00 0.00 0.00 40 1018.1
20260502040023 47 178 0.0 0.0 0.00 0.00 0.00 38 1018.1
20260502034523 47 171 0.0 0.0 0.00 0.00 0.00 34 1018.0
20260502033026 48 146 0.0 0.0 0.00 0.00 0.00 33 1017.7
20260502031522 48 143 0.0 0.0 0.00 0.00 0.00 34 1017.6